TimeCST,TemperatureF,Dew PointF,Humidity,Sea Level PressureIn,VisibilityMPH,Wind Direction,Wind SpeedMPH,Gust SpeedMPH,PrecipitationIn,Events,Conditions,WindDirDegrees,DateUTC
12:15 AM,71.8,63.1,74,30.02,10.0,SE,9.2,-,N/A,,Clear,140,2012-11-09 06:15:00
12:35 AM,71.6,63.0,74,30.02,10.0,SE,9.2,17.3,N/A,,Clear,140,2012-11-09 06:35:00
12:55 AM,71.6,62.8,74,30.01,10.0,SE,11.5,16.1,N/A,,Clear,140,2012-11-09 06:55:00
1:15 AM,71.2,62.6,74,30.01,10.0,SE,9.2,-,N/A,,Clear,140,2012-11-09 07:15:00
1:35 AM,71.1,62.6,75,30.01,10.0,SE,10.4,18.4,N/A,,Clear,140,2012-11-09 07:35:00
1:55 AM,70.9,62.6,75,30.00,10.0,SE,9.2,-,N/A,,Clear,140,2012-11-09 07:55:00
2:15 AM,70.3,62.6,76,30.00,10.0,SE,9.2,-,N/A,,Clear,140,2012-11-09 08:15:00
2:35 AM,70.2,62.4,76,29.99,10.0,SE,9.2,-,N/A,,Clear,140,2012-11-09 08:35:00
2:55 AM,70.0,62.4,77,29.99,10.0,SE,10.4,16.1,N/A,,Clear,130,2012-11-09 08:55:00
3:15 AM,69.8,62.6,78,29.98,10.0,SE,11.5,16.1,N/A,,Clear,140,2012-11-09 09:15:00
3:35 AM,69.4,62.6,79,29.98,10.0,SE,10.4,16.1,N/A,,Clear,140,2012-11-09 09:35:00
3:55 AM,69.1,62.2,79,29.98,10.0,SE,8.1,16.1,N/A,,Clear,140,2012-11-09 09:55:00
4:15 AM,68.9,62.2,79,29.97,10.0,SE,11.5,-,N/A,,Clear,140,2012-11-09 10:15:00
4:35 AM,68.5,62.1,80,29.97,10.0,SE,11.5,17.3,N/A,,Clear,140,2012-11-09 10:35:00
4:55 AM,68.4,61.9,80,29.97,10.0,SE,8.1,-,N/A,,Clear,140,2012-11-09 10:55:00
5:15 AM,68.0,61.9,81,29.98,10.0,SE,6.9,-,N/A,,Clear,140,2012-11-09 11:15:00
5:35 AM,68.0,62.1,81,29.98,10.0,SE,9.2,-,N/A,,Clear,130,2012-11-09 11:35:00
5:55 AM,67.6,62.2,83,29.98,10.0,SE,6.9,-,N/A,,Clear,140,2012-11-09 11:55:00
6:15 AM,67.5,62.2,83,29.98,10.0,SE,8.1,-,N/A,,Clear,130,2012-11-09 12:15:00
6:35 AM,67.3,62.6,85,29.99,10.0,SE,9.2,-,N/A,,Clear,130,2012-11-09 12:35:00
6:55 AM,67.1,62.6,85,29.99,10.0,SE,6.9,-,N/A,,Clear,140,2012-11-09 12:55:00
7:15 AM,67.5,62.6,84,29.99,10.0,SE,6.9,-,N/A,,Clear,140,2012-11-09 13:15:00
7:35 AM,68.9,62.8,81,30.00,10.0,SE,9.2,-,N/A,,Clear,140,2012-11-09 13:35:00
7:55 AM,70.3,62.8,77,30.00,10.0,SE,8.1,17.3,N/A,,Clear,140,2012-11-09 13:55:00
8:15 AM,71.8,62.6,73,30.00,10.0,SE,15.0,19.6,N/A,,Clear,140,2012-11-09 14:15:00
8:55 AM,74.8,61.7,64,30.02,10.0,SE,12.7,26.5,N/A,,Clear,140,2012-11-09 14:55:00
9:15 AM,76.3,61.0,59,30.02,10.0,SSE,17.3,27.6,N/A,,Clear,150,2012-11-09 15:15:00
9:35 AM,77.0,60.8,57,30.02,10.0,SSE,16.1,25.3,N/A,,Clear,150,2012-11-09 15:35:00
9:55 AM,79.0,60.6,53,30.03,10.0,SSE,16.1,24.2,N/A,,Clear,150,2012-11-09 15:55:00
10:15 AM,79.3,59.2,50,30.02,10.0,SE,16.1,26.5,N/A,,Clear,140,2012-11-09 16:15:00
10:35 AM,81.5,58.3,45,30.02,10.0,SSE,18.4,26.5,N/A,,Clear,150,2012-11-09 16:35:00
10:55 AM,82.8,56.5,40,30.02,10.0,SSE,18.4,29.9,N/A,,Clear,150,2012-11-09 16:55:00
11:15 AM,83.8,55.4,38,30.01,10.0,SSE,19.6,26.5,N/A,,Clear,160,2012-11-09 17:15:00
11:35 AM,85.1,55.6,36,30.00,10.0,SSE,17.3,28.8,N/A,,Clear,160,2012-11-09 17:35:00
11:55 AM,85.3,55.4,36,29.99,10.0,SSE,16.1,27.6,N/A,,Clear,160,2012-11-09 17:55:00
12:15 PM,85.8,57.9,39,29.97,10.0,SSE,20.7,29.9,N/A,,Clear,160,2012-11-09 18:15:00
12:35 PM,86.4,56.8,36,29.97,10.0,SSE,18.4,26.5,N/A,,Clear,160,2012-11-09 18:35:00
12:55 PM,87.4,56.5,35,29.96,10.0,SSE,19.6,24.2,N/A,,Clear,150,2012-11-09 18:55:00
1:15 PM,87.4,56.1,34,29.94,10.0,SE,16.1,26.5,N/A,,Clear,140,2012-11-09 19:15:00
1:35 PM,88.5,56.3,33,29.93,10.0,SSE,15.0,26.5,N/A,,Clear,150,2012-11-09 19:35:00
1:55 PM,88.9,55.0,32,29.92,10.0,South,13.8,24.2,N/A,,Clear,170,2012-11-09 19:55:00
2:15 PM,88.9,55.0,32,29.91,10.0,SE,17.3,23.0,N/A,,Clear,140,2012-11-09 20:15:00
2:35 PM,88.7,54.7,31,29.91,10.0,SSE,15.0,24.2,N/A,,Clear,160,2012-11-09 20:35:00
2:55 PM,88.7,55.0,32,29.91,10.0,SE,15.0,26.5,N/A,,Clear,140,2012-11-09 20:55:00
3:15 PM,88.7,54.7,31,29.89,10.0,SE,18.4,24.2,N/A,,Clear,140,2012-11-09 21:15:00
3:35 PM,88.7,55.2,32,29.89,10.0,SE,16.1,24.2,N/A,,Clear,140,2012-11-09 21:35:00
3:55 PM,88.0,55.4,33,29.89,10.0,SSE,13.8,25.3,N/A,,Clear,150,2012-11-09 21:55:00
4:15 PM,87.8,55.8,34,29.90,10.0,SE,16.1,26.5,N/A,,Clear,140,2012-11-09 22:15:00
4:35 PM,87.1,55.9,35,29.89,10.0,SE,19.6,26.5,N/A,,Clear,130,2012-11-09 22:35:00
4:55 PM,86.0,55.9,36,29.90,10.0,SE,18.4,26.5,N/A,,Clear,130,2012-11-09 22:55:00
5:15 PM,85.1,55.8,37,29.90,10.0,SE,15.0,25.3,N/A,,Clear,130,2012-11-09 23:15:00
5:35 PM,83.7,56.7,40,29.91,10.0,SE,11.5,23.0,N/A,,Clear,130,2012-11-09 23:35:00
5:55 PM,82.6,57.0,42,29.91,10.0,ESE,16.1,23.0,N/A,,Clear,120,2012-11-09 23:55:00
6:15 PM,81.9,57.4,43,29.92,10.0,ESE,13.8,20.7,N/A,,Clear,120,2012-11-10 00:15:00
6:35 PM,80.4,58.1,46,29.93,10.0,ESE,13.8,18.4,N/A,,Clear,120,2012-11-10 00:35:00
6:55 PM,79.5,58.6,49,29.93,10.0,ESE,13.8,-,N/A,,Clear,120,2012-11-10 00:55:00
7:15 PM,78.8,59.4,51,29.94,10.0,SE,12.7,24.2,N/A,,Clear,130,2012-11-10 01:15:00
7:35 PM,77.9,60.3,54,29.95,10.0,SE,16.1,21.9,N/A,,Clear,130,2012-11-10 01:35:00
7:55 PM,77.2,60.8,57,29.96,10.0,SE,10.4,21.9,N/A,,Clear,130,2012-11-10 01:55:00
8:15 PM,76.5,61.0,59,29.97,10.0,SE,17.3,23.0,N/A,,Clear,130,2012-11-10 02:15:00
8:35 PM,76.1,61.3,60,29.97,10.0,SE,13.8,23.0,N/A,,Clear,140,2012-11-10 02:35:00
8:55 PM,75.4,61.7,62,29.98,10.0,SE,16.1,25.3,N/A,,Clear,130,2012-11-10 02:55:00
9:15 PM,75.0,61.7,63,29.98,10.0,SE,16.1,23.0,N/A,,Clear,140,2012-11-10 03:15:00
9:35 PM,74.5,62.1,65,29.98,10.0,SE,15.0,23.0,N/A,,Clear,140,2012-11-10 03:35:00
9:55 PM,74.3,62.2,66,29.98,10.0,SE,15.0,27.6,N/A,,Clear,140,2012-11-10 03:55:00
10:15 PM,73.8,62.6,68,29.99,10.0,SE,17.3,21.9,N/A,,Clear,140,2012-11-10 04:15:00
10:35 PM,73.4,62.6,69,29.99,10.0,SE,13.8,21.9,N/A,,Clear,140,2012-11-10 04:35:00
10:55 PM,73.0,62.8,70,29.99,10.0,SE,12.7,21.9,N/A,,Clear,130,2012-11-10 04:55:00
11:15 PM,72.9,62.8,71,29.99,10.0,SE,12.7,18.4,N/A,,Clear,140,2012-11-10 05:15:00
11:35 PM,72.7,62.8,71,29.98,10.0,SE,13.8,21.9,N/A,,Clear,140,2012-11-10 05:35:00
11:55 PM,72.7,62.8,71,29.98,10.0,SE,11.5,24.2,N/A,,Clear,140,2012-11-10 05:55:00